This is the latest recevied weather packets stored in our database for station/object CT1ETE-13. If no packets are shown the sender has not sent any weather packets the latest 10 day(s).
| Time | Temp. | Humidity | Pressure | Rain* | Wind** | Luminosity | Snow |
|---|---|---|---|---|---|---|---|
| 1777367489 | 20.56° C | 58% | 1009.8 hPa | 0 mm | - | - | - |
| 1777366589 | 20.56° C | 57% | 1009.8 hPa | 0 mm | - | - | - |
| 1777366104 | 20.56° C | 56% | 1009.8 hPa | 0 mm | - | - | - |
| 1777365203 | 20.56° C | 57% | 1009.7 hPa | 0 mm | - | - | - |
| 1777364303 | 21.11° C | 54% | 1009.8 hPa | 0 mm | - | - | - |
| 1777363464 | 21.11° C | 57% | 1009.9 hPa | 0 mm | - | - | - |
| 1777362504 | 20.56° C | 54% | 1009.7 hPa | 0 mm | - | - | - |
| 1777361603 | 20.56° C | 57% | 1009.7 hPa | 0 mm | - | - | - |
| 1777360703 | 20° C | 57% | 1009.5 hPa | 0 mm | - | - | - |
| 1777359803 | 19.44° C | 59% | 1009.4 hPa | 0 mm | - | - | - |
| 1777358904 | 18.89° C | 60% | 1009.5 hPa | 0 mm | - | - | - |
| 1777358063 | 18.89° C | 61% | 1009.4 hPa | 0 mm | - | - | - |
| 1777357164 | 18.89° C | 60% | 1009.4 hPa | 0 mm | - | - | - |
| 1777356204 | 18.89° C | 60% | 1009.4 hPa | 0 mm | - | - | - |
| 1777355304 | 18.89° C | 61% | 1009.4 hPa | 0 mm | - | - | - |
| 1777354457 | 18.89° C | 61% | 1009.4 hPa | 0 mm | - | - | - |
| 1777353497 | 18.33° C | 62% | 1009.5 hPa | 0 mm | - | - | - |
| 1777352597 | 18.33° C | 62% | 1009.6 hPa | 0 mm | - | - | - |
| 1777351697 | 18.33° C | 63% | 1009.7 hPa | 0 mm | - | - | - |
| 1777350797 | 18.33° C | 63% | 1009.7 hPa | 0 mm | - | - | - |
| 1777349896 | 18.33° C | 62% | 1009.9 hPa | 0 mm | - | - | - |
| 1777348992 | 18.33° C | 62% | 1009.9 hPa | 0 mm | - | - | - |
| 1777348092 | 18.33° C | 63% | 1010.1 hPa | 0 mm | - | - | - |
| 1777347251 | 18.33° C | 63% | 1010.2 hPa | 0 mm | - | - | - |
| 1777346351 | 18.33° C | 63% | 1010.3 hPa | 0 mm | - | - | - |
* Rain latest hour (hover to see other rain measurements)
** Current wind speed in m/s (hover to see current wind gust speed)